Regional Weather Roundup
Issued by NWS

Home | Current Version | Previous Version | Text Only | Print | Product List | Glossary On
Versions: 1 2 3 4 5 6 7 8 9 10 11 12 13 14 15 16 17 18 19 20 21 22 23 24 25 26 27 28 29 30 31 32 33 34 35 36 37 38 39 40 41 42 43 44 45 46 47 48 49 50
000
ASUS43 KLSX 231807
RWRMO

WEATHER SUMMARY FOR MISSOURI
NATIONAL WEATHER SERVICE SPRINGFIELD MO
100 PM CDT SAT AUG 23 2014

NOTE: "FAIR" INDICATES FEW OR NO CLOUDS BELOW 12,000 FEET WITH NO
       SIGNIFICANT WEATHER AND/OR OBSTRUCTIONS TO VISIBILITY.
       CURRENT SKY AND/OR WEATHER CONDITIONS ARE NOT AVAILABLE FOR
       CHILLICOTHE AND FARMINGTON.

MOZ001>031-035>038-043-044-053-054-231900-
...NORTHERN AND WESTERN MISSOURI...

CITY           SKY/WX    TMP DP  RH WIND       PRES   REMARKS
KANSAS CTY INT MOSUNNY   90  71  53 S10G20    29.90F HX  96
6HR MIN TEMP:  77; 6HR MAX TEMP:  90;

KANSAS C DTWN  SUNNY     93  70  46 S7        29.89S HX  99
6HR MIN TEMP:  80; 6HR MAX TEMP:  93;

LEE`S SUMMIT   SUNNY     90  70  51 S12       29.92S HX  95
6HR MIN TEMP:  77; 6HR MAX TEMP:  91;

ST JOSEPH      SUNNY     88  73  61 S14       29.88F HX  95
6HR MIN TEMP:  74; 6HR MAX TEMP:  88;

CHILLICOTHE      N/A     89  74  60 SE7       29.91F HX  98
6HR MIN TEMP:  77; 6HR MAX TEMP:  89; 6HR PCP:  0.01;

KIRKSVILLE     MOSUNNY   87  75  67 S14       29.95R HX  96
6HR MIN TEMP:  74; 6HR MAX TEMP:  87; 6HR PCP:  0.01;


$$
MOZ066>068-077>081-088>096-101>105-231900-
...SOUTHWEST MISSOURI...

CITY           SKY/WX    TMP DP  RH WIND       PRES   REMARKS
SPRINGFIELD    SUNNY     96  62  32 SW8       29.98F HX  97
6HR MIN TEMP:  75; 6HR MAX TEMP:  96;

JOPLIN         SUNNY     96  64  34 SW12      29.96F HX  98
6HR MIN TEMP:  79; 6HR MAX TEMP:  97;


$$
MOZ032>034-039>042-045>050-055>058-069>072-231900-
...CENTRAL MISSOURI...

CITY           SKY/WX    TMP DP  RH WIND       PRES   REMARKS
COLUMBIA       PTSUNNY   91  73  55 CALM      29.96F HX  99
6HR MIN TEMP:  76; 6HR MAX TEMP:  91;

JEFFERSON CITY PTSUNNY   92  69  47 CALM      29.93F HX  97
6HR MIN TEMP:  77; 6HR MAX TEMP:  93;

ROLLA          SUNNY     93  69  45 S8        29.96F HX  98
6HR MIN TEMP:  74; 6HR MAX TEMP:  93;

SEDALIA        MOSUNNY   91  72  53 S7        29.95S HX  98
6HR MIN TEMP:  79; 6HR MAX TEMP:  92;

WHITEMAN AFB   SUNNY     90  69  49 S12       29.92F HX  94
OSAGE BEACH    SUNNY     95  66  38 S7        29.95F HX  98

$$
MOZ051-052-059>065-231900-
...EAST CENTRAL MISSOURI...

CITY           SKY/WX    TMP DP  RH WIND       PRES   REMARKS
ST LOUIS INTL  PTSUNNY   94  74  52 N8        29.96S HX 104
6HR MIN TEMP:  81; 6HR MAX TEMP:  97;

SPIRIT OF STL  CLOUDY    92  73  53 SW3       29.94S HX 100
6HR MIN TEMP:  74; 6HR MAX TEMP:  94;

ST CHARLES     SUNNY     93  75  55 N9        29.94S HX 104
6HR MIN TEMP:  75; 6HR MAX TEMP:  93;


$$
MOZ072>076-082>087-097>100-106>115-231900-
...SOUTH CENTRAL AND SOUTHEAST MISSOURI...

CITY           SKY/WX    TMP DP  RH WIND       PRES   REMARKS
CAPE GIRARDEAU SUNNY     92  77  61 CALM      29.96F HX 105
6HR MIN TEMP:  76; 6HR MAX TEMP:  93;

FARMINGTON     SUNNY     97  68  38 N6        30.00F HX 101
6HR MIN TEMP:  79; 6HR MAX TEMP:  97;

POPLAR BLUFF   MOSUNNY   95  72  47 SE6       29.95F HX 103
6HR MIN TEMP:  76; 6HR MAX TEMP:  95;

WEST PLAINS    SUNNY     93  69  45 SW7       30.02F HX  98
6HR MIN TEMP:  74; 6HR MAX TEMP:  93;


$$


USA.gov is the U.S. government's official web portal to all federal, state and local government web resources and services.